Time,TemperatureF,DewpointF,PressureIn,WindDirection,WindDirectionDegrees,WindSpeedMPH,WindSpeedGustMPH,Humidity,HourlyPrecipIn,Conditions,Clouds,dailyrainin,SoftwareType,DateUTC
2013-06-08 00:01:00,55.2,55.0,29.76,SW,225,0.0,0.0,98,0.00,,,0.00,weatherlink.com 1.10,2013-06-08 04:01:00,
2013-06-08 00:16:00,55.4,55.0,29.76,West,261,0.0,2.0,98,0.00,,,0.00,weatherlink.com 1.10,2013-06-08 04:16:00,
2013-06-08 00:31:00,55.6,55.0,29.76,SSW,213,0.0,4.0,97,0.00,,,0.00,weatherlink.com 1.10,2013-06-08 04:31:00,
2013-06-08 00:46:00,55.8,55.0,29.77,WNW,300,4.0,4.0,97,0.00,,,0.00,weatherlink.com 1.10,2013-06-08 04:46:00,
2013-06-08 01:16:00,55.6,55.0,29.77,South,181,1.0,5.0,97,0.00,,,0.00,weatherlink.com 1.10,2013-06-08 05:16:00,
2013-06-08 01:31:00,55.4,55.0,29.76,SW,223,3.0,5.0,97,0.00,,,0.00,weatherlink.com 1.10,2013-06-08 05:31:00,
2013-06-08 01:46:00,55.3,55.0,29.76,SW,220,4.0,6.0,97,0.00,,,0.00,weatherlink.com 1.10,2013-06-08 05:46:00,
2013-06-08 02:01:00,55.0,54.0,29.76,WSW,246,0.0,5.0,97,0.00,,,0.00,weatherlink.com 1.10,2013-06-08 06:01:00,
2013-06-08 02:31:00,54.8,54.0,29.77,West,271,0.0,3.0,98,0.00,,,0.00,weatherlink.com 1.10,2013-06-08 06:31:00,
2013-06-08 03:01:00,54.0,53.0,29.77,SW,231,2.0,7.0,97,0.00,,,0.00,weatherlink.com 1.10,2013-06-08 07:01:00,
2013-06-08 03:16:00,53.2,52.0,29.76,SW,236,2.0,7.0,97,0.00,,,0.00,weatherlink.com 1.10,2013-06-08 07:16:00,
2013-06-08 03:31:00,52.5,52.0,29.76,SW,232,2.0,7.0,97,0.00,,,0.00,weatherlink.com 1.10,2013-06-08 07:31:00,
2013-06-08 03:46:00,52.0,51.0,29.76,WNW,290,1.0,5.0,97,0.00,,,0.00,weatherlink.com 1.10,2013-06-08 07:46:00,
2013-06-08 04:01:00,51.1,50.0,29.77,WNW,296,5.0,9.0,97,0.00,,,0.00,weatherlink.com 1.10,2013-06-08 08:01:00,
2013-06-08 04:16:00,50.6,50.0,29.78,SSW,200,1.0,10.0,97,0.00,,,0.00,weatherlink.com 1.10,2013-06-08 08:16:00,
2013-06-08 04:31:00,50.4,50.0,29.78,WNW,284,5.0,7.0,98,0.00,,,0.00,weatherlink.com 1.10,2013-06-08 08:31:00,
2013-06-08 04:47:00,50.5,50.0,29.79,SSW,205,4.0,7.0,98,0.00,,,0.00,weatherlink.com 1.10,2013-06-08 08:47:00,
2013-06-08 05:01:00,51.0,51.0,29.80,WNW,297,0.0,5.0,98,0.00,,,0.00,weatherlink.com 1.10,2013-06-08 09:01:00,
2013-06-08 05:16:00,51.6,51.0,29.79,NW,310,0.0,7.0,98,0.00,,,0.00,weatherlink.com 1.10,2013-06-08 09:16:00,
2013-06-08 05:31:00,52.2,52.0,29.79,WNW,302,0.0,2.0,98,0.00,,,0.00,weatherlink.com 1.10,2013-06-08 09:31:00,
2013-06-08 05:46:00,52.3,52.0,29.79,WNW,302,0.0,2.0,97,0.00,,,0.00,weatherlink.com 1.10,2013-06-08 09:46:00,
2013-06-08 06:01:00,52.2,52.0,29.80,SSE,152,0.0,2.0,98,0.00,,,0.00,weatherlink.com 1.10,2013-06-08 10:01:00,
2013-06-08 06:16:00,52.6,52.0,29.81,SSE,152,0.0,1.0,97,0.00,,,0.00,weatherlink.com 1.10,2013-06-08 10:16:00,
2013-06-08 06:46:00,52.8,52.0,29.82,SSW,192,3.0,6.0,96,0.00,,,0.00,weatherlink.com 1.10,2013-06-08 10:46:00,
2013-06-08 07:01:00,52.9,52.0,29.83,SSE,159,1.0,6.0,96,0.00,,,0.00,weatherlink.com 1.10,2013-06-08 11:01:00,
2013-06-08 07:16:00,53.0,52.0,29.84,South,169,2.0,3.0,95,0.00,,,0.00,weatherlink.com 1.10,2013-06-08 11:16:00,
2013-06-08 07:31:00,53.4,52.0,29.83,WNW,298,0.0,5.0,94,0.00,,,0.00,weatherlink.com 1.10,2013-06-08 11:31:00,
2013-06-08 07:47:00,55.4,53.0,29.84,West,279,0.0,4.0,90,0.00,,,0.00,weatherlink.com 1.10,2013-06-08 11:47:00,
2013-06-08 08:02:00,56.1,53.0,29.84,WNW,292,2.0,7.0,89,0.00,,,0.00,weatherlink.com 1.10,2013-06-08 12:02:00,
2013-06-08 08:17:00,56.5,53.0,29.84,West,274,4.0,7.0,87,0.00,,,0.00,weatherlink.com 1.10,2013-06-08 12:17:00,
2013-06-08 08:32:00,56.9,53.0,29.84,WNW,298,6.0,7.0,86,0.00,,,0.00,weatherlink.com 1.10,2013-06-08 12:32:00,
2013-06-08 08:47:00,57.1,53.0,29.85,WNW,293,2.0,9.0,86,0.00,,,0.00,weatherlink.com 1.10,2013-06-08 12:47:00,
2013-06-08 09:02:00,57.9,54.0,29.87,NNW,327,1.0,6.0,85,0.00,,,0.00,weatherlink.com 1.10,2013-06-08 13:02:00,
2013-06-08 09:17:00,59.2,54.0,29.88,WNW,299,2.0,6.0,83,0.00,,,0.00,weatherlink.com 1.10,2013-06-08 13:17:00,
2013-06-08 09:32:00,58.3,53.0,29.88,NNW,329,5.0,8.0,83,0.00,,,0.00,weatherlink.com 1.10,2013-06-08 13:32:00,
2013-06-08 09:47:00,58.4,54.0,29.89,NE,51,3.0,8.0,86,0.00,,,0.00,weatherlink.com 1.10,2013-06-08 13:47:00,
2013-06-08 10:02:00,59.3,54.0,29.89,SW,232,5.0,8.0,83,0.00,,,0.00,weatherlink.com 1.10,2013-06-08 14:02:00,
2013-06-08 10:17:00,60.4,55.0,29.90,NW,305,2.0,5.0,83,0.00,,,0.00,weatherlink.com 1.10,2013-06-08 14:17:00,
2013-06-08 10:32:00,60.3,54.0,29.91,SW,229,0.0,7.0,79,0.00,,,0.00,weatherlink.com 1.10,2013-06-08 14:32:00,
2013-06-08 10:47:00,60.7,54.0,29.91,WSW,249,3.0,6.0,78,0.00,,,0.00,weatherlink.com 1.10,2013-06-08 14:47:00,
2013-06-08 11:02:00,61.0,54.0,29.91,WSW,244,2.0,6.0,78,0.00,,,0.00,weatherlink.com 1.10,2013-06-08 15:02:00,
2013-06-08 11:17:00,61.3,55.0,29.92,SW,232,6.0,10.0,79,0.00,,,0.00,weatherlink.com 1.10,2013-06-08 15:17:00,
2013-06-08 11:32:00,61.6,54.0,29.92,WNW,298,0.0,8.0,76,0.00,,,0.00,weatherlink.com 1.10,2013-06-08 15:32:00,
2013-06-08 11:47:00,61.8,55.0,29.92,NW,319,3.0,8.0,77,0.00,,,0.00,weatherlink.com 1.10,2013-06-08 15:47:00,
2013-06-08 12:02:00,62.2,55.0,29.93,NNE,32,2.0,8.0,78,0.00,,,0.00,weatherlink.com 1.10,2013-06-08 16:02:00,
2013-06-08 12:17:00,61.8,54.0,29.93,NNW,344,5.0,11.0,76,0.00,,,0.00,weatherlink.com 1.10,2013-06-08 16:17:00,
2013-06-08 12:32:00,62.5,55.0,29.93,SW,222,11.0,11.0,77,0.00,,,0.00,weatherlink.com 1.10,2013-06-08 16:32:00,
2013-06-08 12:47:00,61.4,55.0,29.94,WNW,288,3.0,8.0,78,0.00,,,0.00,weatherlink.com 1.10,2013-06-08 16:47:00,
2013-06-08 13:02:00,62.0,55.0,29.94,West,270,3.0,10.0,78,0.00,,,0.00,weatherlink.com 1.10,2013-06-08 17:02:00,
2013-06-08 13:17:00,62.4,55.0,29.94,NW,304,1.0,8.0,78,0.00,,,0.00,weatherlink.com 1.10,2013-06-08 17:17:00,
2013-06-08 13:32:00,61.8,56.0,29.94,WNW,293,3.0,9.0,82,0.00,,,0.00,weatherlink.com 1.10,2013-06-08 17:32:00,
2013-06-08 13:47:00,61.4,56.0,29.94,WNW,298,4.0,9.0,81,0.00,,,0.00,weatherlink.com 1.10,2013-06-08 17:47:00,
2013-06-08 14:02:00,62.7,56.0,29.94,WNW,295,4.0,7.0,80,0.00,,,0.00,weatherlink.com 1.10,2013-06-08 18:02:00,
2013-06-08 14:17:00,63.2,56.0,29.94,West,261,1.0,6.0,78,0.00,,,0.00,weatherlink.com 1.10,2013-06-08 18:17:00,
2013-06-08 14:32:00,62.6,56.0,29.94,WNW,295,2.0,4.0,78,0.00,,,0.00,weatherlink.com 1.10,2013-06-08 18:32:00,
2013-06-08 14:47:00,63.4,56.0,29.93,SSW,197,3.0,8.0,76,0.00,,,0.00,weatherlink.com 1.10,2013-06-08 18:47:00,
2013-06-08 15:02:00,63.2,56.0,29.93,West,263,2.0,8.0,78,0.00,,,0.00,weatherlink.com 1.10,2013-06-08 19:02:00,
2013-06-08 15:17:00,63.1,56.0,29.93,WNW,296,1.0,9.0,77,0.00,,,0.00,weatherlink.com 1.10,2013-06-08 19:17:00,
2013-06-08 15:32:00,63.6,56.0,29.93,SW,222,3.0,5.0,76,0.00,,,0.00,weatherlink.com 1.10,2013-06-08 19:32:00,
2013-06-08 15:47:00,64.5,56.0,29.93,SW,215,1.0,6.0,74,0.00,,,0.00,weatherlink.com 1.10,2013-06-08 19:47:00,
2013-06-08 16:02:00,63.8,56.0,29.94,NW,315,0.0,4.0,76,0.00,,,0.00,weatherlink.com 1.10,2013-06-08 20:02:00,
2013-06-08 16:17:00,64.2,57.0,29.94,WNW,301,3.0,4.0,76,0.00,,,0.00,weatherlink.com 1.10,2013-06-08 20:17:00,
2013-06-08 16:33:00,65.4,57.0,29.94,NW,321,0.0,4.0,75,0.00,,,0.00,weatherlink.com 1.10,2013-06-08 20:33:00,
2013-06-08 16:48:00,65.3,57.0,29.94,NNW,327,0.0,5.0,74,0.00,,,0.00,weatherlink.com 1.10,2013-06-08 20:48:00,
2013-06-08 17:03:00,63.9,55.0,29.95,NW,311,1.0,3.0,74,0.00,,,0.00,weatherlink.com 1.10,2013-06-08 21:03:00,
2013-06-08 17:18:00,63.3,56.0,29.95,NW,313,1.0,4.0,77,0.00,,,0.00,weatherlink.com 1.10,2013-06-08 21:18:00,
2013-06-08 17:33:00,64.7,56.0,29.95,ENE,78,0.0,10.0,73,0.00,,,0.00,weatherlink.com 1.10,2013-06-08 21:33:00,
2013-06-08 17:48:00,64.9,56.0,29.95,SSW,207,0.0,5.0,73,0.00,,,0.00,weatherlink.com 1.10,2013-06-08 21:48:00,
2013-06-08 18:03:00,65.4,55.0,29.95,WNW,296,0.0,5.0,70,0.00,,,0.00,weatherlink.com 1.10,2013-06-08 22:03:00,
2013-06-08 18:18:00,65.5,56.0,29.95,SSW,198,0.0,3.0,71,0.00,,,0.00,weatherlink.com 1.10,2013-06-08 22:18:00,
2013-06-08 18:33:00,65.3,56.0,29.95,North,360,0.0,3.0,71,0.00,,,0.00,weatherlink.com 1.10,2013-06-08 22:33:00,
2013-06-08 18:48:00,65.9,56.0,29.95,WNW,303,0.0,3.0,71,0.00,,,0.00,weatherlink.com 1.10,2013-06-08 22:48:00,
2013-06-08 19:03:00,65.5,55.0,29.96,SSW,203,0.0,5.0,70,0.00,,,0.00,weatherlink.com 1.10,2013-06-08 23:03:00,
2013-06-08 19:18:00,64.1,56.0,29.96,South,186,0.0,3.0,74,0.00,,,0.00,weatherlink.com 1.10,2013-06-08 23:18:00,
2013-06-08 19:33:00,63.9,57.0,29.96,South,184,3.0,4.0,79,0.00,,,0.00,weatherlink.com 1.10,2013-06-08 23:33:00,
2013-06-08 19:48:00,62.9,57.0,29.97,West,273,1.0,5.0,81,0.00,,,0.00,weatherlink.com 1.10,2013-06-08 23:48:00,
2013-06-08 20:03:00,62.1,59.0,29.97,West,281,0.0,2.0,88,0.00,,,0.00,weatherlink.com 1.10,2013-06-09 00:03:00,
2013-06-08 20:18:00,61.8,59.0,29.98,West,281,0.0,1.0,90,0.00,,,0.00,weatherlink.com 1.10,2013-06-09 00:18:00,
2013-06-08 20:33:00,61.0,58.0,29.98,SW,222,0.0,1.0,91,0.00,,,0.00,weatherlink.com 1.10,2013-06-09 00:33:00,
2013-06-08 20:48:00,60.6,58.0,29.99,SE,146,0.0,1.0,92,0.00,,,0.00,weatherlink.com 1.10,2013-06-09 00:48:00,
2013-06-08 21:03:00,60.5,59.0,29.98,SSE,150,0.0,2.0,93,0.00,,,0.00,weatherlink.com 1.10,2013-06-09 01:03:00,
2013-06-08 21:18:00,60.2,59.0,29.98,ESE,112,0.0,3.0,95,0.00,,,0.00,weatherlink.com 1.10,2013-06-09 01:18:00,
2013-06-08 21:33:00,60.0,59.0,29.99,ESE,112,0.0,2.0,96,0.00,,,0.00,weatherlink.com 1.10,2013-06-09 01:33:00,
2013-06-08 21:48:00,59.8,59.0,30.00,ESE,110,0.0,0.0,96,0.00,,,0.00,weatherlink.com 1.10,2013-06-09 01:48:00,
2013-06-08 22:03:00,59.7,59.0,30.00,East,82,0.0,3.0,97,0.00,,,0.00,weatherlink.com 1.10,2013-06-09 02:03:00,
2013-06-08 22:18:00,59.6,59.0,30.00,ENE,75,1.0,3.0,97,0.00,,,0.00,weatherlink.com 1.10,2013-06-09 02:18:00,
2013-06-08 22:33:00,59.5,59.0,30.00,ESE,122,0.0,5.0,97,0.00,,,0.00,weatherlink.com 1.10,2013-06-09 02:33:00,
2013-06-08 22:48:00,59.3,59.0,30.00,NNE,15,1.0,7.0,97,0.00,,,0.00,weatherlink.com 1.10,2013-06-09 02:48:00,
2013-06-08 23:18:00,59.2,59.0,30.01,NE,54,0.0,5.0,98,0.00,,,0.00,weatherlink.com 1.10,2013-06-09 03:18:00,
2013-06-08 23:33:00,59.1,59.0,30.01,ENE,69,0.0,3.0,98,0.00,,,0.00,weatherlink.com 1.10,2013-06-09 03:33:00,
2013-06-08 23:48:00,59.1,59.0,30.01,ESE,102,0.0,3.0,98,0.00,,,0.00,weatherlink.com 1.10,2013-06-09 03:48:00,